Showing default

OPS 9311 (IDSCS 1), 2215

Orbit data source: Space-Track

OPS 9311 (IDSCS 1), 2215 is a payload satellite owned by USAF SSD (US) in GEO that was launched on Thu, 16 Jun 1966 UTC via a TITAN IIIC launch vehicle from the Air Force Eastern Test Range (AFETR). Payload-class satellites include a variety of spacecraft equipped with specific instruments for various scientific and technological missions. These include communications satellites like Starlink; space stations such as the ISS; scientific satellites like the Hubble; Earth observation satellites from companies like Planet Labs, Umbra, and HawkEye 360; GPS; miniature CubeSats for education and research; and military/defense satellites.

Not visible in the next 10 days
Identifier
2215, 1966-053B
Orbit
GEO
Last TLE update
1 week ago
Origin
Manufacturer
Philco-Ford WDL
Mission
Non-operational Defense Communications
Bus & Motor
IDCSP, Unknown motor
Mass
45 kg wet, 45 kg dry
Launch date (UTC)
1966-06-16 (59 years ago)
Launch vehicle
TITAN IIIC
Launch site
Air Force Eastern Test Range (AFETR)
Object type
Payload
Rocket body
Debris
Shape & HBR
Ico Poly, 0.5 m
Radar Cross Section
0.926 m², Medium (>0.1 m² and < 1m²)

Expand to show TLE details & history

TLE from 1 week ago
0 OPS 9311 (IDSCS 1)
1 02215U 66053B   25190.87091472 -.00000049  00000-0  00000-0 0  9999
2 02215   8.0354  46.8128 0029376 213.2932 146.5179  1.07908917130672
Epoch: 2025-07-09T20:54Z
TLE epoch observation values (Epoch: 2025-07-09T20:54:07.031Z)
Latitude
0.00001°
Longitude
165.23598°
Altitude
33,870.951 km
Speed
3.143 km/s
True Right ascension
03h 07m 14s
True Declination
0° 00' 00"
Sunlit
Object was in daylight at epoch
Visualization orbit readout
Latitude
6.24708°
Longitude
-144.28788°
Altitude
33,884.469 km
Speed
3.142 km/s
Apparent Right ascension
06h 44m 35s
Apparent Declination
0° 23' 53"
Sunlit
Object is in daylight
Visualization observer readout
Local Sidereal Time
20:58:11
Azimuth
45.495° ENE
Elevation
-39.484°
Doppler factor
1
Orbital elements
Apogee altitude
33,891.957 km
Perigee altitude
33,656.056 km
Semi-major axis
40,152.144 km
Eccentricity
0.00294
Inclination
8.0354°
RAAN
46.8128°
Arg. of periapsis
213.2932°
True anomaly
146.70304°
Mean anomaly
146.5179°
Eccentric anomaly
146.61053°
Mean motion
0.26976 °/min
Orbital period
1,334.51 mins
BSTAR
0
Loading maneuver chart data...
Loading SW <> Apogee altitude chart data...
Loading historical data...
Loading historical data...
Loading historical data...
Loading historical data...
Loading historical data...
Loading historical data...
Loading historical data...
|